Location: Newark
(32.9533°N, 113.4900°W)
Time: 19:28:08
(UTC+00:00)

OTV 5 (USA 277) - Visible Passes

Search period start: 20 October 2019 00:00
Search period end: 30 October 2019 00:00
Orbit: 310 x 324 km, 54.5° (Epoch: 17 October)

Date Brightness Start Highest point End Pass type
(mag) Time Alt. Az. Time Alt. Az. Time Alt. Az.
20 Oct ? 12:39:38 12° NNW 12:41:53 37° NE 12:44:27 10° ESE visible
21 Oct ? 12:54:26 16° NW 12:56:25 52° SW 12:59:03 10° SSE visible
22 Oct ? 11:38:25 13° E 11:38:25 13° E 11:38:50 10° E visible
22 Oct ? 13:09:22 11° W 13:10:48 15° SW 13:12:24 10° SSW visible
23 Oct ? 11:53:28 14° SE 11:53:28 14° SE 11:53:59 10° SE visible
27 Oct ? 01:40:36 10° SSW 01:43:02 30° SE 01:43:54 24° E visible
28 Oct ? 01:54:49 10° SW 01:57:30 62° NW 01:58:38 30° NNE visible
29 Oct ? 02:10:05 10° W 02:12:08 19° NW 02:13:13 16° N visible
